Home > Weather > Melle > Past weeks

Flag for Germany Past Weather in Melle, Lower Saxony, Germany — Yesterday and Last 2 Weeks

Now
63 °F

Partly sunny.


Feels Like: 63 °F
Forecast: 55 / 69 °F
Wind: 1 mph from North

Location: Muenster / Osnabrueck

Current Time: Jul 30, 2016 at 8:56:11 PM

Latest Report: Jul 30, 2016 at 8:20 PM


Visibility: 5 mi

Pressure: 29.89 "Hg

Humidity: 94%

Dew Point: 61 °F

Location of MelleLocation

Past Weather in Melle — Graph

°F

Melle Temperature Yesterday

Maximum temperature yesterday: 73 °F (at 4:20 PM)
Minimum temperature yesterday: 61 °F (at 7:20 AM)
Average temperature yesterday: 67 °F

High & Low Weather Summary for the Past Weeks

 TemperatureHumidityPressure
High93 °F (Jul 20, 3:50 PM)100% (Jul 16, 1:50 AM)30.24 "Hg (Jul 16, 1:50 AM)
Low52 °F (Jul 16, 12:50 AM)23% (Jul 19, 12:50 PM)29.83 "Hg (Jul 20, 6:50 PM)
Average69 °F73%30.05 "Hg
* Reported Jul 15 7:20 PM — Jul 30 7:20 PM, Melle, Weather by CustomWeather, © 2016

Note: Actual official high and low records may vary slightly from our data, if they occured in-between our weather recording intervals... More about our weather records

Advertising

Melle Weather History for the Previous 24 Hours

Scroll right to see more
 ConditionsComfort  
Time TempWeatherWind HumidityBarometerVisibility
7:20 PM
Sat, Jul 30
63 °FLight rain. Broken clouds.3 mph94%29.92 "Hg4 mi
6:50 PM64 °FSprinkles. Broken clouds.6 mph88%29.92 "Hg4 mi
6:20 PM64 °FSprinkles. Broken clouds.5 mph94%29.92 "Hg4 mi
5:50 PM64 °FRain. Broken clouds.7 mph88%29.92 "Hg4 mi
5:20 PM66 °FSprinkles. Broken clouds.6 mph83%29.92 "Hg5 mi
4:50 PM68 °FSprinkles. Broken clouds.6 mph73%29.92 "HgN/A
4:20 PM70 °FBroken clouds.9 mph64%29.89 "HgN/A
3:50 PM70 °FBroken clouds.9 mph64%29.92 "HgN/A
3:20 PM68 °FPartly sunny.9 mph73%29.92 "HgN/A
2:50 PM68 °FPartly sunny.10 mph73%29.92 "HgN/A
2:20 PM68 °FBroken clouds.10 mph69%29.92 "HgN/A
1:50 PM70 °FPartly sunny.13 mph69%29.92 "HgN/A
1:20 PM68 °FPartly sunny.10 mph73%29.92 "HgN/A
12:50 PM64 °FBroken clouds.12 mph83%29.92 "HgN/A
12:20 PM64 °FPartly sunny.14 mph78%29.92 "HgN/A
11:50 AM64 °FPartly sunny.15 mph78%29.89 "HgN/A
11:20 AM66 °FScattered clouds.12 mph73%29.89 "HgN/A
10:50 AM66 °FScattered clouds.12 mph68%29.89 "HgN/A
10:20 AM66 °FScattered clouds.12 mph68%29.89 "HgN/A
9:50 AM64 °FScattered clouds.14 mph68%29.89 "HgN/A
9:20 AM64 °FScattered clouds.12 mph73%29.89 "HgN/A
8:50 AM63 °FPassing clouds.10 mph77%29.89 "HgN/A
8:20 AM63 °FScattered clouds.10 mph77%29.89 "HgN/A
7:50 AM61 °FPassing clouds.8 mph83%29.86 "HgN/A
7:20 AM61 °FPassing clouds.6 mph83%29.89 "HgN/A
6:50 AM61 °FSunny.7 mph83%29.86 "Hg10 mi
6:20 AM59 °FPassing clouds.6 mph88%29.86 "HgN/A
5:50 AM59 °FPassing clouds.5 mph88%29.86 "HgN/A
5:20 AM61 °FPassing clouds.7 mph83%29.86 "HgN/A
4:50 AM61 °FPassing clouds.7 mph88%29.86 "HgN/A
4:20 AM61 °FPassing clouds.6 mph88%29.86 "HgN/A
3:50 AM61 °FClear.6 mph83%29.86 "Hg10 mi
3:20 AM63 °FClear.6 mph83%29.86 "Hg10 mi
2:50 AM63 °FClear.5 mph83%29.89 "Hg10 mi
2:20 AM63 °FPassing clouds.5 mph83%29.89 "HgN/A
1:50 AM63 °FPassing clouds.6 mph83%29.89 "HgN/A
1:20 AM64 °FPassing clouds.7 mph78%29.89 "HgN/A
12:50 AM64 °FPassing clouds.6 mph78%29.89 "HgN/A
12:20 AM64 °FPassing clouds.7 mph78%29.89 "HgN/A
11:50 PM
Fri, Jul 29
64 °FPassing clouds.6 mph78%29.89 "HgN/A
11:20 PM66 °FClear.6 mph68%29.89 "Hg10 mi
10:50 PM66 °FClear.8 mph73%29.89 "Hg10 mi
10:20 PM66 °FPartly sunny.8 mph73%29.86 "HgN/A
9:50 PM66 °FPartly sunny.10 mph73%29.86 "HgN/A
9:20 PM68 °FPartly sunny.12 mph69%29.86 "HgN/A
8:50 PM70 °FBroken clouds.8 mph69%29.86 "HgN/A
8:20 PM70 °FScattered clouds.9 mph64%29.83 "HgN/A
Weather by CustomWeather, © 2016

See weather overviewHow to use our weather pages